| time (UTC) | temp C | wind direction | speed KPH | gust KPH | rain 1hr cm | rain 24hr cm | rain mn cm | humidity % | barometer mb |
| 20260505214509 | 30 | 230 | 9.7 | 20.9 | 0.00 | 0.00 | 0.00 | 57 | 1004.6 |
| 20260505214007 | 30 | 248 | 12.9 | 24.1 | 0.00 | 0.00 | 0.00 | 58 | 1004.7 |
| 20260505213506 | 30 | 203 | 12.9 | 24.1 | 0.00 | 0.00 | 0.00 | 58 | 1004.7 |
| 20260505213007 | 30 | 215 | 12.9 | 27.4 | 0.00 | 0.00 | 0.00 | 59 | 1004.6 |
| 20260505212506 | 30 | 221 | 16.1 | 25.7 | 0.00 | 0.00 | 0.00 | 59 | 1004.6 |
| 20260505212011 | 30 | 251 | 11.3 | 20.9 | 0.00 | 0.00 | 0.00 | 58 | 1004.8 |
| 20260505211504 | 30 | 213 | 8.0 | 27.4 | 0.00 | 0.00 | 0.00 | 59 | 1004.9 |
| 20260505211007 | 30 | 192 | 12.9 | 27.4 | 0.00 | 0.00 | 0.00 | 58 | 1005.0 |
| 20260505210506 | 30 | 226 | 11.3 | 20.9 | 0.00 | 0.00 | 0.00 | 59 | 1005.0 |
| 20260505210006 | 30 | 236 | 12.9 | 20.9 | 0.00 | 0.00 | 0.00 | 60 | 1005.2 |
| 20260505205506 | 29 | 224 | 9.7 | 20.9 | 0.00 | 0.00 | 0.00 | 60 | 1005.0 |
| 20260505205008 | 28 | 192 | 16.1 | 22.5 | 0.00 | 0.00 | 0.00 | 59 | 1005.0 |
| 20260505204508 | 29 | 228 | 12.9 | 24.1 | 0.00 | 0.00 | 0.00 | 60 | 1005.1 |
| 20260505204007 | 29 | 235 | 14.5 | 24.1 | 0.00 | 0.00 | 0.00 | 59 | 1005.2 |
| 20260505203504 | 29 | 198 | 14.5 | 24.1 | 0.00 | 0.00 | 0.00 | 58 | 1005.3 |
| 20260505203009 | 29 | 225 | 12.9 | 27.4 | 0.00 | 0.00 | 0.00 | 59 | 1005.4 |
| 20260505202507 | 29 | 217 | 16.1 | 27.4 | 0.00 | 0.00 | 0.00 | 60 | 1005.5 |
| 20260505202007 | 28 | 229 | 12.9 | 24.1 | 0.00 | 0.00 | 0.00 | 62 | 1005.4 |
| 20260505201507 | 28 | 205 | 12.9 | 25.7 | 0.00 | 0.00 | 0.00 | 61 | 1005.5 |
| 20260505201007 | 28 | 229 | 12.9 | 27.4 | 0.00 | 0.00 | 0.00 | 61 | 1005.4 |
| 20260505200503 | 28 | 206 | 16.1 | 27.4 | 0.00 | 0.00 | 0.00 | 61 | 1005.3 |
| 20260505200009 | 28 | 219 | 14.5 | 24.1 | 0.00 | 0.00 | 0.00 | 61 | 1005.4 |
| 20260505195506 | 28 | 205 | 14.5 | 24.1 | 0.00 | 0.00 | 0.00 | 60 | 1005.6 |
| 20260505195006 | 29 | 191 | 12.9 | 24.1 | 0.00 | 0.00 | 0.00 | 60 | 1005.4 |
| 20260505194508 | 29 | 240 | 14.5 | 24.1 | 0.00 | 0.00 | 0.00 | 59 | 1005.5 |
| 20260505194007 | 29 | 279 | 12.9 | 25.7 | 0.00 | 0.00 | 0.00 | 60 | 1005.5 |
| 20260505193505 | 28 | 223 | 16.1 | 29.0 | 0.00 | 0.00 | 0.00 | 59 | 1005.5 |
| 20260505193009 | 29 | 219 | 17.7 | 33.8 | 0.00 | 0.00 | 0.00 | 60 | 1005.4 |
| 20260505192508 | 29 | 217 | 17.7 | 33.8 | 0.00 | 0.00 | 0.00 | 57 | 1005.4 |
| 20260505192005 | 28 | 234 | 14.5 | 30.6 | 0.00 | 0.00 | 0.00 | 60 | 1005.4 |
| 20260505191509 | 28 | 214 | 16.1 | 24.1 | 0.00 | 0.00 | 0.00 | 65 | 1005.4 |
| 20260505191006 | 28 | 204 | 14.5 | 25.7 | 0.00 | 0.00 | 0.00 | 64 | 1005.3 |
| 20260505190505 | 28 | 163 | 12.9 | 25.7 | 0.00 | 0.00 | 0.00 | 63 | 1005.3 |
| 20260505190028 | 28 | 211 | 12.9 | 25.7 | 0.00 | 0.00 | 0.00 | 65 | 1005.4 |
| 20260505185508 | 28 | 219 | 9.7 | 25.7 | 0.00 | 0.00 | 0.00 | 66 | 1005.3 |
| 20260505185009 | 27 | 360 | 16.1 | 25.7 | 0.00 | 0.00 | 0.00 | 66 | 1005.4 |
| 20260505184531 | 27 | 238 | 14.5 | 25.7 | 0.00 | 0.00 | 0.00 | 65 | 1005.5 |
| 20260505184008 | 27 | 360 | 16.1 | 27.4 | 0.00 | 0.00 | 0.00 | 67 | 1005.5 |
| 20260505183503 | 27 | 216 | 19.3 | 27.4 | 0.00 | 0.00 | 0.00 | 67 | 1005.5 |
| 20260505183030 | 27 | 214 | 12.9 | 22.5 | 0.00 | 0.00 | 0.00 | 67 | 1005.5 |
| 20260505182507 | 27 | 185 | 14.5 | 29.0 | 0.00 | 0.00 | 0.00 | 68 | 1005.5 |
| 20260505182006 | 27 | 196 | 14.5 | 29.0 | 0.00 | 0.00 | 0.00 | 69 | 1005.5 |
| 20260505181534 | 27 | 221 | 14.5 | 29.0 | 0.00 | 0.00 | 0.00 | 69 | 1005.6 |
| 20260505181008 | 27 | 197 | 16.1 | 32.2 | 0.00 | 0.00 | 0.00 | 69 | 1005.5 |
| 20260505180511 | 27 | 192 | 17.7 | 32.2 | 0.00 | 0.00 | 0.00 | 68 | 1005.6 |
| 20260505180038 | 27 | 360 | 19.3 | 29.0 | 0.00 | 0.00 | 0.00 | 67 | 1005.5 |
| 20260505175506 | 27 | 202 | 17.7 | 29.0 | 0.00 | 0.00 | 0.00 | 68 | 1005.5 |
| 20260505175006 | 27 | 182 | 19.3 | 35.4 | 0.00 | 0.00 | 0.00 | 68 | 1005.4 |
| 20260505174526 | 27 | 213 | 17.7 | 35.4 | 0.00 | 0.00 | 0.00 | 69 | 1005.5 |
| 20260505174010 | 27 | 169 | 17.7 | 33.8 | 0.00 | 0.00 | 0.00 | 69 | 1005.5 |
| 20260505173510 | 26 | 213 | 16.1 | 29.0 | 0.00 | 0.00 | 0.00 | 70 | 1005.4 |
| 20260505173030 | 26 | 179 | 17.7 | 32.2 | 0.00 | 0.00 | 0.00 | 71 | 1005.4 |
| 20260505172506 | 26 | 234 | 19.3 | 32.2 | 0.00 | 0.00 | 0.00 | 71 | 1005.5 |
| 20260505172008 | 26 | 205 | 16.1 | 35.4 | 0.00 | 0.00 | 0.00 | 72 | 1005.4 |
| 20260505171527 | 25 | 217 | 17.7 | 35.4 | 0.00 | 0.00 | 0.00 | 72 | 1005.4 |
| 20260505171007 | 25 | 145 | 19.3 | 29.0 | 0.00 | 0.00 | 0.00 | 73 | 1005.4 |
| 20260505170504 | 25 | 181 | 16.1 | 29.0 | 0.00 | 0.00 | 0.00 | 74 | 1005.7 |
| 20260505170029 | 25 | 222 | 12.9 | 29.0 | 0.00 | 0.00 | 0.00 | 74 | 1005.7 |
| 20260505165505 | 25 | 202 | 14.5 | 29.0 | 0.00 | 0.00 | 0.00 | 74 | 1005.5 |
| 20260505165005 | 25 | 208 | 20.9 | 27.4 | 0.00 | 0.00 | 0.00 | 74 | 1005.3 |
| 20260505164509 | 25 | 360 | 17.7 | 25.7 | 0.00 | 0.00 | 0.00 | 74 | 1005.1 |
| 20260505164007 | 25 | 209 | 12.9 | 29.0 | 0.00 | 0.00 | 0.00 | 75 | 1005.9 |
| 20260505163510 | 25 | 206 | 16.1 | 29.0 | 0.00 | 0.00 | 0.00 | 74 | 1005.3 |
| 20260505163012 | 25 | 194 | 16.1 | 27.4 | 0.00 | 0.00 | 0.00 | 74 | 1005.5 |
| 20260505162503 | 25 | 180 | 16.1 | 33.8 | 0.00 | 0.00 | 0.00 | 74 | 1005.7 |
| 20260505162006 | 25 | 215 | 22.5 | 33.8 | 0.00 | 0.00 | 0.00 | 74 | 1006.0 |
| 20260505161509 | 25 | 207 | 17.7 | 30.6 | 0.00 | 0.00 | 0.00 | 74 | 1005.3 |
| 20260505161003 | 25 | 178 | 19.3 | 33.8 | 0.00 | 0.00 | 0.00 | 74 | 1005.4 |
| 20260505160506 | 25 | 219 | 20.9 | 33.8 | 0.00 | 0.00 | 0.00 | 73 | 1005.4 |
| 20260505153010 | 24 | 196 | 12.9 | 35.4 | 0.00 | 0.00 | 0.00 | 76 | 1005.1 |
| 20260505152503 | 24 | 164 | 24.1 | 35.4 | 0.00 | 0.00 | 0.00 | 76 | 1005.1 |
| 20260505152008 | 24 | 211 | 16.1 | 29.0 | 0.00 | 0.00 | 0.00 | 76 | 1005.4 |
| 20260505151512 | 24 | 219 | 16.1 | 25.7 | 0.00 | 0.00 | 0.00 | 76 | 1005.5 |
| 20260505151004 | 24 | 236 | 12.9 | 37.0 | 0.00 | 0.00 | 0.00 | 77 | 1005.4 |
| 20260505150504 | 23 | 219 | 19.3 | 37.0 | 0.00 | 0.00 | 0.00 | 77 | 1005.4 |
| 20260505140508 | 22 | 182 | 22.5 | 37.0 | 0.00 | 0.00 | 0.00 | 79 | 1005.2 |
| 20260505125008 | 22 | 208 | 9.7 | 17.7 | 0.00 | 0.00 | 0.00 | 82 | 1005.0 |
| 20260505124512 | 21 | 173 | 11.3 | 29.0 | 0.00 | 0.00 | 0.00 | 83 | 1004.9 |
| 20260505124004 | 21 | 158 | 12.9 | 29.0 | 0.00 | 0.00 | 0.00 | 83 | 1004.7 |
| 20260505123508 | 21 | 194 | 12.9 | 25.7 | 0.00 | 0.00 | 0.00 | 83 | 1004.7 |
| 20260505123014 | 21 | 193 | 9.7 | 17.7 | 0.00 | 0.00 | 0.00 | 83 | 1004.8 |
| 20260505122504 | 21 | 217 | 9.7 | 17.7 | 0.00 | 0.00 | 0.00 | 84 | 1004.9 |
| 20260505122009 | 21 | 205 | 9.7 | 25.7 | 0.00 | 0.00 | 0.00 | 84 | 1004.7 |
| 20260505121525 | 21 | 159 | 9.7 | 25.7 | 0.00 | 0.00 | 0.00 | 84 | 1004.7 |
| 20260505121006 | 21 | 174 | 8.0 | 19.3 | 0.00 | 0.00 | 0.00 | 84 | 1004.7 |
| 20260505120506 | 21 | 165 | 11.3 | 19.3 | 0.00 | 0.00 | 0.00 | 85 | 1004.7 |
| 20260505120011 | 21 | 192 | 8.0 | 17.7 | 0.00 | 0.00 | 0.00 | 84 | 1004.7 |
| 20260505115507 | 21 | 193 | 8.0 | 14.5 | 0.00 | 0.00 | 0.00 | 84 | 1004.7 |
| 20260505115007 | 21 | 174 | 6.4 | 20.9 | 0.00 | 0.00 | 0.00 | 84 | 1004.6 |
| 20260505114515 | 21 | 172 | 11.3 | 20.9 | 0.00 | 0.00 | 0.00 | 84 | 1004.6 |
| 20260505114008 | 21 | 360 | 9.7 | 20.9 | 0.00 | 0.00 | 0.00 | 84 | 1004.6 |
| 20260505113506 | 21 | 170 | 11.3 | 20.9 | 0.00 | 0.00 | 0.00 | 83 | 1004.6 |
| 20260505113014 | 21 | 185 | 9.7 | 17.7 | 0.00 | 0.00 | 0.00 | 83 | 1004.6 |
| 20260505112510 | 21 | 171 | 9.7 | 19.3 | 0.00 | 0.00 | 0.00 | 83 | 1004.5 |
| 20260505112007 | 21 | 360 | 12.9 | 19.3 | 0.00 | 0.00 | 0.00 | 83 | 1004.4 |
| 20260505111514 | 21 | 172 | 11.3 | 19.3 | 0.00 | 0.00 | 0.00 | 83 | 1004.3 |
| 20260505111007 | 21 | 216 | 11.3 | 24.1 | 0.00 | 0.00 | 0.00 | 83 | 1004.4 |
| 20260505110508 | 21 | 200 | 12.9 | 24.1 | 0.00 | 0.00 | 0.00 | 83 | 1004.3 |
| 20260505102007 | 21 | 200 | 11.3 | 19.3 | 0.00 | 0.00 | 0.00 | 83 | 1004.7 |
| 20260505101514 | 21 | 178 | 9.7 | 20.9 | 0.00 | 0.00 | 0.00 | 83 | 1004.6 |
| 20260505101010 | 21 | 228 | 11.3 | 25.7 | 0.00 | 0.00 | 0.00 | 83 | 1004.5 |
| 20260505100507 | 21 | 223 | 12.9 | 25.7 | 0.00 | 0.00 | 0.00 | 84 | 1004.4 |
| 20260505100021 | 21 | 173 | 9.7 | 20.9 | 0.00 | 0.00 | 0.00 | 84 | 1004.5 |
| 20260505095508 | 21 | 200 | 14.5 | 24.1 | 0.00 | 0.00 | 0.00 | 84 | 1004.5 |
| 20260505095006 | 21 | 212 | 12.9 | 24.1 | 0.00 | 0.00 | 0.00 | 84 | 1004.5 |
| 20260505094516 | 21 | 158 | 11.3 | 20.9 | 0.00 | 0.00 | 0.00 | 84 | 1004.4 |
| 20260505094008 | 21 | 180 | 12.9 | 22.5 | 0.00 | 0.00 | 0.00 | 84 | 1004.5 |
| 20260505093506 | 21 | 194 | 12.9 | 24.1 | 0.00 | 0.00 | 0.00 | 84 | 1004.6 |
| 20260505093024 | 21 | 169 | 12.9 | 24.1 | 0.00 | 0.00 | 0.00 | 84 | 1004.7 |
| 20260505092508 | 21 | 185 | 12.9 | 24.1 | 0.00 | 0.00 | 0.00 | 84 | 1004.8 |
| 20260505092008 | 21 | 182 | 12.9 | 22.5 | 0.00 | 0.00 | 0.00 | 84 | 1004.7 |
| 20260505091517 | 21 | 213 | 11.3 | 24.1 | 0.00 | 0.00 | 0.00 | 84 | 1005.0 |
| 20260505091006 | 21 | 207 | 16.1 | 24.1 | 0.00 | 0.00 | 0.00 | 84 | 1004.9 |
| 20260505090507 | 21 | 213 | 14.5 | 27.4 | 0.00 | 0.00 | 0.00 | 84 | 1004.8 |
| 20260505090014 | 21 | 219 | 12.9 | 27.4 | 0.00 | 0.00 | 0.00 | 84 | 1004.9 |
| 20260505085508 | 21 | 198 | 14.5 | 27.4 | 0.00 | 0.00 | 0.00 | 84 | 1004.9 |
| 20260505085011 | 21 | 171 | 9.7 | 25.7 | 0.00 | 0.00 | 0.00 | 83 | 1004.7 |
| 20260505084518 | 21 | 215 | 11.3 | 25.7 | 0.00 | 0.00 | 0.00 | 83 | 1004.8 |
| 20260505084008 | 21 | 163 | 12.9 | 22.5 | 0.00 | 0.00 | 0.00 | 83 | 1004.7 |
| 20260505083509 | 21 | 220 | 12.9 | 22.5 | 0.00 | 0.00 | 0.00 | 83 | 1004.7 |
| 20260505083018 | 21 | 196 | 11.3 | 20.9 | 0.00 | 0.00 | 0.00 | 83 | 1004.7 |
| 20260505082509 | 21 | 185 | 12.9 | 20.9 | 0.00 | 0.00 | 0.00 | 82 | 1004.8 |
| 20260505082008 | 21 | 195 | 11.3 | 22.5 | 0.00 | 0.00 | 0.00 | 82 | 1004.8 |
| 20260505081518 | 21 | 184 | 12.9 | 22.5 | 0.00 | 0.00 | 0.00 | 82 | 1004.9 |
| 20260505081008 | 21 | 194 | 11.3 | 22.5 | 0.00 | 0.00 | 0.00 | 82 | 1005.1 |
| 20260505080508 | 21 | 168 | 11.3 | 19.3 | 0.00 | 0.00 | 0.00 | 81 | 1005.1 |
| 20260505080018 | 21 | 159 | 12.9 | 22.5 | 0.00 | 0.00 | 0.00 | 81 | 1005.1 |
| 20260505075506 | 21 | 171 | 12.9 | 22.5 | 0.00 | 0.00 | 0.00 | 81 | 1005.2 |
| 20260505075003 | 21 | 195 | 11.3 | 25.7 | 0.00 | 0.00 | 0.00 | 81 | 1005.2 |
| 20260505074516 | 21 | 155 | 11.3 | 25.7 | 0.00 | 0.00 | 0.00 | 80 | 1005.3 |
| 20260505074004 | 21 | 199 | 12.9 | 22.5 | 0.00 | 0.00 | 0.00 | 80 | 1005.3 |
| 20260505073503 | 21 | 360 | 16.1 | 22.5 | 0.00 | 0.00 | 0.00 | 80 | 1005.3 |
| 20260505073016 | 21 | 187 | 11.3 | 22.5 | 0.00 | 0.00 | 0.00 | 79 | 1005.4 |
| 20260505072503 | 21 | 178 | 14.5 | 27.4 | 0.00 | 0.00 | 0.00 | 79 | 1005.5 |
| 20260505072002 | 21 | 207 | 11.3 | 27.4 | 0.00 | 0.00 | 0.00 | 79 | 1005.5 |
| 20260505071523 | 21 | 173 | 12.9 | 27.4 | 0.00 | 0.00 | 0.00 | 79 | 1005.6 |
| 20260505071002 | 21 | 189 | 12.9 | 27.4 | 0.00 | 0.00 | 0.00 | 79 | 1005.7 |
| 20260505070504 | 21 | 211 | 11.3 | 22.5 | 0.00 | 0.00 | 0.00 | 78 | 1005.7 |
| 20260505070016 | 22 | 151 | 12.9 | 22.5 | 0.00 | 0.00 | 0.00 | 78 | 1005.7 |
| 20260505065504 | 21 | 158 | 12.9 | 24.1 | 0.00 | 0.00 | 0.00 | 78 | 1005.8 |
| 20260505065007 | 22 | 155 | 9.7 | 24.1 | 0.00 | 0.00 | 0.00 | 78 | 1005.8 |
| 20260505064518 | 22 | 171 | 14.5 | 25.7 | 0.00 | 0.00 | 0.00 | 78 | 1005.9 |
| 20260505064003 | 21 | 196 | 12.9 | 27.4 | 0.00 | 0.00 | 0.00 | 78 | 1005.8 |
| 20260505063503 | 22 | 198 | 12.9 | 27.4 | 0.00 | 0.00 | 0.00 | 77 | 1005.9 |
| 20260505063029 | 22 | 175 | 14.5 | 30.6 | 0.00 | 0.00 | 0.00 | 77 | 1006.0 |
| 20260505062504 | 22 | 175 | 14.5 | 30.6 | 0.00 | 0.00 | 0.00 | 77 | 1005.9 |
| 20260505062003 | 21 | 198 | 14.5 | 30.6 | 0.00 | 0.00 | 0.00 | 77 | 1005.8 |
| 20260505061520 | 21 | 163 | 16.1 | 29.0 | 0.00 | 0.00 | 0.00 | 77 | 1005.8 |
| 20260505061004 | 21 | 183 | 16.1 | 29.0 | 0.00 | 0.00 | 0.00 | 77 | 1006.0 |
| 20260505060502 | 21 | 160 | 12.9 | 29.0 | 0.00 | 0.00 | 0.00 | 77 | 1005.9 |
| 20260505060017 | 21 | 198 | 12.9 | 24.1 | 0.00 | 0.00 | 0.00 | 77 | 1005.8 |
| 20260505055506 | 21 | 176 | 12.9 | 24.1 | 0.00 | 0.00 | 0.00 | 76 | 1005.8 |
| 20260505055003 | 21 | 153 | 14.5 | 24.1 | 0.00 | 0.00 | 0.00 | 76 | 1005.9 |
| 20260505054516 | 21 | 154 | 14.5 | 24.1 | 0.00 | 0.00 | 0.00 | 76 | 1005.9 |
| 20260505054004 | 21 | 205 | 12.9 | 25.7 | 0.00 | 0.00 | 0.00 | 76 | 1006.0 |
| 20260505053507 | 22 | 184 | 12.9 | 25.7 | 0.00 | 0.00 | 0.00 | 76 | 1006.1 |
| 20260505053017 | 22 | 164 | 11.3 | 24.1 | 0.00 | 0.00 | 0.00 | 75 | 1006.0 |
| 20260505052504 | 22 | 167 | 12.9 | 25.7 | 0.00 | 0.00 | 0.00 | 75 | 1006.2 |
| 20260505052009 | 22 | 191 | 11.3 | 25.7 | 0.00 | 0.00 | 0.00 | 75 | 1006.3 |
| 20260505051532 | 22 | 162 | 11.3 | 22.5 | 0.00 | 0.00 | 0.00 | 75 | 1006.4 |
| 20260505051006 | 22 | 187 | 12.9 | 25.7 | 0.00 | 0.00 | 0.00 | 75 | 1006.4 |
| 20260505050507 | 22 | 167 | 17.7 | 29.0 | 0.00 | 0.00 | 0.00 | 75 | 1006.4 |
| 20260505041536 | 22 | 164 | 11.3 | 24.1 | 0.00 | 0.00 | 0.00 | 73 | 1006.7 |
| 20260505041004 | 22 | 152 | 11.3 | 25.7 | 0.00 | 0.00 | 0.00 | 73 | 1006.7 |
| 20260505040509 | 22 | 193 | 11.3 | 25.7 | 0.00 | 0.00 | 0.00 | 73 | 1006.8 |
| 20260505040019 | 22 | 183 | 11.3 | 24.1 | 0.00 | 0.00 | 0.00 | 72 | 1006.7 |
| 20260505035503 | 22 | 170 | 11.3 | 20.9 | 0.00 | 0.00 | 0.00 | 72 | 1006.6 |
| 20260505035007 | 22 | 175 | 14.5 | 24.1 | 0.00 | 0.00 | 0.00 | 72 | 1006.7 |
| 20260505034520 | 22 | 179 | 12.9 | 27.4 | 0.00 | 0.00 | 0.00 | 72 | 1006.7 |
| 20260505034003 | 22 | 170 | 11.3 | 27.4 | 0.00 | 0.00 | 0.00 | 72 | 1006.8 |
| 20260505033508 | 22 | 157 | 11.3 | 22.5 | 0.00 | 0.00 | 0.00 | 71 | 1006.8 |
| 20260505033020 | 22 | 196 | 11.3 | 22.5 | 0.00 | 0.00 | 0.00 | 71 | 1006.9 |
| 20260505032503 | 22 | 177 | 11.3 | 24.1 | 0.00 | 0.00 | 0.00 | 71 | 1007.0 |
| 20260505032008 | 22 | 156 | 12.9 | 24.1 | 0.00 | 0.00 | 0.00 | 71 | 1006.9 |
| 20260505031528 | 22 | 182 | 12.9 | 24.1 | 0.00 | 0.00 | 0.00 | 71 | 1006.9 |
| 20260505031004 | 22 | 185 | 11.3 | 24.1 | 0.00 | 0.00 | 0.00 | 70 | 1006.8 |
| 20260505030507 | 23 | 173 | 14.5 | 25.7 | 0.00 | 0.00 | 0.00 | 70 | 1006.8 |
| 20260505030018 | 23 | 181 | 8.0 | 25.7 | 0.00 | 0.00 | 0.00 | 70 | 1006.8 |
| 20260505025509 | 23 | 175 | 9.7 | 27.4 | 0.00 | 0.00 | 0.00 | 70 | 1007.0 |
| 20260505025010 | 23 | 190 | 12.9 | 27.4 | 0.00 | 0.00 | 0.00 | 69 | 1006.9 |
| 20260505024520 | 23 | 208 | 14.5 | 27.4 | 0.00 | 0.00 | 0.00 | 69 | 1006.8 |
| 20260505024003 | 23 | 161 | 16.1 | 24.1 | 0.00 | 0.00 | 0.00 | 69 | 1006.7 |
| 20260505023508 | 23 | 180 | 12.9 | 27.4 | 0.00 | 0.00 | 0.00 | 69 | 1006.7 |
| 20260505023018 | 23 | 216 | 14.5 | 27.4 | 0.00 | 0.00 | 0.00 | 69 | 1006.6 |
| 20260505022503 | 23 | 178 | 14.5 | 25.7 | 0.00 | 0.00 | 0.00 | 69 | 1006.7 |
| 20260505022007 | 23 | 156 | 11.3 | 25.7 | 0.00 | 0.00 | 0.00 | 68 | 1006.7 |
| 20260505021520 | 23 | 159 | 12.9 | 24.1 | 0.00 | 0.00 | 0.00 | 68 | 1006.7 |
| 20260505021002 | 23 | 179 | 12.9 | 24.1 | 0.00 | 0.00 | 0.00 | 68 | 1006.6 |
| 20260505020507 | 23 | 200 | 9.7 | 29.0 | 0.00 | 0.00 | 0.00 | 68 | 1006.7 |
| 20260505020020 | 23 | 182 | 11.3 | 29.0 | 0.00 | 0.00 | 0.00 | 68 | 1006.7 |
| 20260505015504 | 23 | 186 | 12.9 | 25.7 | 0.00 | 0.00 | 0.00 | 68 | 1006.6 |
| 20260505015008 | 23 | 178 | 17.7 | 27.4 | 0.00 | 0.00 | 0.00 | 67 | 1006.4 |
| 20260505014527 | 23 | 189 | 14.5 | 25.7 | 0.00 | 0.00 | 0.00 | 67 | 1006.5 |
| 20260505014002 | 23 | 199 | 14.5 | 24.1 | 0.00 | 0.00 | 0.00 | 67 | 1006.5 |
| 20260505013507 | 23 | 172 | 14.5 | 32.2 | 0.00 | 0.00 | 0.00 | 67 | 1006.6 |
| 20260505013021 | 23 | 171 | 17.7 | 32.2 | 0.00 | 0.00 | 0.00 | 67 | 1006.4 |
| 20260505012505 | 23 | 189 | 16.1 | 24.1 | 0.00 | 0.00 | 0.00 | 66 | 1006.4 |
| 20260505012010 | 23 | 179 | 12.9 | 24.1 | 0.00 | 0.00 | 0.00 | 66 | 1006.5 |
| 20260505011520 | 23 | 217 | 12.9 | 24.1 | 0.00 | 0.00 | 0.00 | 66 | 1006.4 |
| 20260505011004 | 23 | 161 | 16.1 | 22.5 | 0.00 | 0.00 | 0.00 | 66 | 1006.5 |
| 20260505010510 | 23 | 189 | 12.9 | 22.5 | 0.00 | 0.00 | 0.00 | 66 | 1006.5 |
| 20260505010020 | 24 | 198 | 11.3 | 24.1 | 0.00 | 0.00 | 0.00 | 65 | 1006.6 |
| 20260505005509 | 24 | 206 | 14.5 | 22.5 | 0.00 | 0.00 | 0.00 | 65 | 1006.6 |
| 20260505005010 | 24 | 181 | 11.3 | 24.1 | 0.00 | 0.00 | 0.00 | 64 | 1006.6 |
| 20260505004522 | 24 | 173 | 12.9 | 32.2 | 0.00 | 0.00 | 0.00 | 63 | 1006.6 |
| 20260505004010 | 24 | 206 | 16.1 | 33.8 | 0.00 | 0.00 | 0.00 | 63 | 1006.6 |
| 20260505003507 | 25 | 223 | 16.1 | 37.0 | 0.00 | 0.00 | 0.00 | 62 | 1006.7 |
| 20260505003027 | 25 | 178 | 20.9 | 37.0 | 0.00 | 0.00 | 0.00 | 62 | 1006.7 |
| 20260505002511 | 25 | 197 | 17.7 | 30.6 | 0.00 | 0.00 | 0.00 | 62 | 1006.8 |
| 20260505002013 | 25 | 188 | 16.1 | 30.6 | 0.00 | 0.00 | 0.00 | 62 | 1006.7 |
| 20260505001520 | 25 | 186 | 14.5 | 32.2 | 0.00 | 0.00 | 0.00 | 62 | 1006.9 |
| 20260505001009 | 25 | 157 | 17.7 | 29.0 | 0.00 | 0.00 | 0.00 | 61 | 1006.8 |
| 20260505000507 | 25 | 171 | 14.5 | 30.6 | 0.00 | 0.00 | 0.00 | 62 | 1006.8 |
| 20260505000031 | 25 | 161 | 14.5 | 30.6 | 0.00 | 0.00 | 0.00 | 61 | 1006.7 |
| 20260504235507 | 25 | 173 | 14.5 | 25.7 | 0.00 | 0.00 | 0.00 | 60 | 1006.8 |
| 20260504235012 | 25 | 167 | 11.3 | 25.7 | 0.00 | 0.00 | 0.00 | 60 | 1006.7 |
| 20260504234523 | 25 | 175 | 14.5 | 33.8 | 0.00 | 0.00 | 0.00 | 60 | 1006.8 |
| 20260504234010 | 25 | 173 | 17.7 | 33.8 | 0.00 | 0.00 | 0.00 | 60 | 1006.8 |
| 20260504233506 | 25 | 221 | 19.3 | 32.2 | 0.00 | 0.00 | 0.00 | 60 | 1007.0 |
| 20260504233020 | 25 | 169 | 19.3 | 30.6 | 0.00 | 0.00 | 0.00 | 59 | 1006.9 |
| 20260504232510 | 26 | 167 | 19.3 | 29.0 | 0.00 | 0.00 | 0.00 | 59 | 1006.9 |
| 20260504232010 | 26 | 179 | 16.1 | 29.0 | 0.00 | 0.00 | 0.00 | 59 | 1007.0 |
| 20260504231533 | 26 | 211 | 14.5 | 33.8 | 0.00 | 0.00 | 0.00 | 59 | 1007.2 |
| 20260504231010 | 26 | 158 | 16.1 | 33.8 | 0.00 | 0.00 | 0.00 | 59 | 1007.2 |
| 20260504230511 | 26 | 188 | 19.3 | 35.4 | 0.00 | 0.00 | 0.00 | 58 | 1007.1 |
| 20260504230024 | 26 | 184 | 20.9 | 32.2 | 0.00 | 0.00 | 0.00 | 57 | 1007.2 |
| 20260504225510 | 26 | 171 | 17.7 | 29.0 | 0.00 | 0.00 | 0.00 | 57 | 1007.4 |
| 20260504225004 | 26 | 157 | 19.3 | 29.0 | 0.00 | 0.00 | 0.00 | 58 | 1007.5 |
| 20260504224508 | 26 | 201 | 14.5 | 35.4 | 0.00 | 0.00 | 0.00 | 58 | 1007.4 |
| 20260504224003 | 26 | 121 | 12.9 | 35.4 | 0.00 | 0.00 | 0.00 | 59 | 1007.4 |
| 20260504223503 | 26 | 163 | 16.1 | 33.8 | 0.00 | 0.00 | 0.00 | 58 | 1007.4 |
| 20260504223004 | 26 | 174 | 11.3 | 33.8 | 0.00 | 0.00 | 0.00 | 57 | 1007.3 |
| 20260504222503 | 26 | 202 | 17.7 | 33.8 | 0.00 | 0.00 | 0.00 | 57 | 1007.3 |
| 20260504222003 | 26 | 167 | 12.9 | 30.6 | 0.00 | 0.00 | 0.00 | 57 | 1007.5 |
| 20260504221504 | 26 | 167 | 14.5 | 29.0 | 0.00 | 0.00 | 0.00 | 57 | 1007.5 |
| 20260504221003 | 26 | 134 | 17.7 | 33.8 | 0.00 | 0.00 | 0.00 | 56 | 1007.5 |
| 20260504220503 | 26 | 169 | 16.1 | 40.2 | 0.00 | 0.00 | 0.00 | 56 | 1007.6 |
| 20260504220005 | 26 | 201 | 20.9 | 37.0 | 0.00 | 0.00 | 0.00 | 55 | 1007.6 |
| 20260504215505 | 26 | 188 | 12.9 | 30.6 | 0.00 | 0.00 | 0.00 | 56 | 1007.5 |
| 20260504215006 | 26 | 360 | 16.1 | 30.6 | 0.00 | 0.00 | 0.00 | 56 | 1007.7 |